Year,Month,Day,Hour,Minute,Value (Times are PST for temperature in C)
2007,07,13,00,00,15.90
2007,07,13,00,01,15.90
2007,07,13,00,02,15.90
2007,07,13,00,03,15.90
2007,07,13,00,04,15.90
2007,07,13,00,05,15.90
2007,07,13,00,06,15.90
2007,07,13,00,07,15.90
2007,07,13,00,08,15.90
2007,07,13,00,09,15.90
2007,07,13,00,10,15.90
2007,07,13,00,11,15.90
2007,07,13,00,12,15.90
2007,07,13,00,13,15.90
2007,07,13,00,14,15.90
2007,07,13,00,15,15.90
2007,07,13,00,16,15.80
2007,07,13,00,17,15.80
2007,07,13,00,18,15.80
2007,07,13,00,19,15.80
2007,07,13,00,20,15.80
2007,07,13,00,21,15.80
2007,07,13,00,22,15.80
2007,07,13,00,23,15.80
2007,07,13,00,24,15.80
2007,07,13,00,25,15.80
2007,07,13,00,26,15.80
2007,07,13,00,27,15.80
2007,07,13,00,28,15.80
2007,07,13,00,29,15.80
2007,07,13,00,30,15.70
2007,07,13,00,31,15.60
2007,07,13,00,32,15.50
2007,07,13,00,33,15.50
2007,07,13,00,34,15.40
2007,07,13,00,35,15.40
2007,07,13,00,36,15.30
2007,07,13,00,37,15.30
2007,07,13,00,38,15.30
2007,07,13,00,39,15.30
2007,07,13,00,40,15.30
2007,07,13,00,41,15.30
2007,07,13,00,42,15.20
2007,07,13,00,43,15.10
2007,07,13,00,44,15.00
2007,07,13,00,45,15.00
2007,07,13,00,46,14.90
2007,07,13,00,47,14.90
2007,07,13,00,48,14.90
2007,07,13,00,49,14.90
2007,07,13,00,50,14.90
2007,07,13,00,51,14.80
2007,07,13,00,52,14.80
2007,07,13,00,53,14.80
2007,07,13,00,54,14.80
2007,07,13,00,55,14.80
2007,07,13,00,56,14.80
2007,07,13,00,57,14.80
2007,07,13,00,58,14.80
2007,07,13,00,59,14.80
2007,07,13,01,00,14.80
2007,07,13,01,01,14.80
2007,07,13,01,02,14.80
2007,07,13,01,03,14.80
2007,07,13,01,04,14.80
2007,07,13,01,05,14.80
2007,07,13,01,06,14.80
2007,07,13,01,07,14.70
2007,07,13,01,08,14.70
2007,07,13,01,09,14.70
2007,07,13,01,10,14.70
2007,07,13,01,11,14.70
2007,07,13,01,12,14.70
2007,07,13,01,13,14.70
2007,07,13,01,14,14.70
2007,07,13,01,15,14.60
2007,07,13,01,16,14.60
2007,07,13,01,17,14.60
2007,07,13,01,18,14.70
2007,07,13,01,19,14.60
2007,07,13,01,20,14.60
2007,07,13,01,21,14.60
2007,07,13,01,22,14.60
2007,07,13,01,23,14.60
2007,07,13,01,24,14.60
2007,07,13,01,25,14.60
2007,07,13,01,26,14.60
2007,07,13,01,27,14.60
2007,07,13,01,28,14.60
2007,07,13,01,29,14.60
2007,07,13,01,30,14.70
2007,07,13,01,31,14.70
2007,07,13,01,32,14.70
2007,07,13,01,33,14.70
2007,07,13,01,34,14.70
2007,07,13,01,35,14.70
2007,07,13,01,36,14.80
2007,07,13,01,37,14.80
2007,07,13,01,38,14.80
2007,07,13,01,39,14.80
2007,07,13,01,40,14.80
2007,07,13,01,41,14.80
2007,07,13,01,42,14.80
2007,07,13,01,43,14.80
2007,07,13,01,44,14.80
2007,07,13,01,45,14.80
2007,07,13,01,46,14.80
2007,07,13,01,47,14.80
2007,07,13,01,48,14.80
2007,07,13,01,49,14.80
2007,07,13,01,50,14.70
2007,07,13,01,51,14.70
2007,07,13,01,52,14.70
2007,07,13,01,53,14.70
2007,07,13,01,54,14.70
2007,07,13,01,55,14.70
2007,07,13,01,56,14.70
2007,07,13,01,57,14.70
2007,07,13,01,58,14.60
2007,07,13,01,59,14.60
2007,07,13,02,00,14.60
2007,07,13,02,01,14.60
2007,07,13,02,02,14.60
2007,07,13,02,03,14.60
2007,07,13,02,04,14.60
2007,07,13,02,05,14.60
2007,07,13,02,06,14.60
2007,07,13,02,07,14.60
2007,07,13,02,08,14.60
2007,07,13,02,09,14.60
2007,07,13,02,10,14.60
2007,07,13,02,11,14.60
2007,07,13,02,12,14.60
2007,07,13,02,13,14.70
2007,07,13,02,14,14.70
2007,07,13,02,15,14.70
2007,07,13,02,16,14.70
2007,07,13,02,17,14.80
2007,07,13,02,18,14.80
2007,07,13,02,19,14.80
2007,07,13,02,20,14.90
2007,07,13,02,21,14.90
2007,07,13,02,22,14.90
2007,07,13,02,23,15.00
2007,07,13,02,24,15.00
2007,07,13,02,25,15.00
2007,07,13,02,26,15.10
2007,07,13,02,27,15.10
2007,07,13,02,28,15.10
2007,07,13,02,29,15.10
2007,07,13,02,30,15.10
2007,07,13,02,31,15.10
2007,07,13,02,32,15.10
2007,07,13,02,33,15.10
2007,07,13,02,34,15.10
2007,07,13,02,35,15.20
2007,07,13,02,36,15.30
2007,07,13,02,37,15.30
2007,07,13,02,38,15.30
2007,07,13,02,39,15.30
2007,07,13,02,40,15.30
2007,07,13,02,41,15.30
2007,07,13,02,42,15.30
2007,07,13,02,43,15.30
2007,07,13,02,44,15.30
2007,07,13,02,45,15.30
2007,07,13,02,46,15.30
2007,07,13,02,47,15.30
2007,07,13,02,48,15.30
2007,07,13,02,49,15.30
2007,07,13,02,50,15.30
2007,07,13,02,51,15.30
2007,07,13,02,52,15.30
2007,07,13,02,53,15.20
2007,07,13,02,54,15.20
2007,07,13,02,55,15.20
2007,07,13,02,56,15.20
2007,07,13,02,57,15.20
2007,07,13,02,58,15.20
2007,07,13,02,59,15.20
2007,07,13,03,00,15.10
2007,07,13,03,01,15.10
2007,07,13,03,02,15.10
2007,07,13,03,03,15.10
2007,07,13,03,04,15.10
2007,07,13,03,05,15.10
2007,07,13,03,06,15.00
2007,07,13,03,07,15.00
2007,07,13,03,08,15.00
2007,07,13,03,09,15.00
2007,07,13,03,10,15.00
2007,07,13,03,11,15.00
2007,07,13,03,12,15.00
2007,07,13,03,13,15.00
2007,07,13,03,14,14.90
2007,07,13,03,15,14.90
2007,07,13,03,16,14.90
2007,07,13,03,17,14.90
2007,07,13,03,18,15.00
2007,07,13,03,19,15.00
2007,07,13,03,20,15.00
2007,07,13,03,21,15.00
2007,07,13,03,22,15.00
2007,07,13,03,23,15.00
2007,07,13,03,24,15.00
2007,07,13,03,25,15.00
2007,07,13,03,26,15.00
2007,07,13,03,27,15.00
2007,07,13,03,28,15.00
2007,07,13,03,29,15.00
2007,07,13,03,30,15.00
2007,07,13,03,31,15.00
2007,07,13,03,32,15.00
2007,07,13,03,33,15.00
2007,07,13,03,34,15.00
2007,07,13,03,35,15.00
2007,07,13,03,36,15.10
2007,07,13,03,37,15.10
2007,07,13,03,38,15.20
2007,07,13,03,39,15.30
2007,07,13,03,40,15.40
2007,07,13,03,41,15.50
2007,07,13,03,42,15.60
2007,07,13,03,43,15.70
2007,07,13,03,44,15.80
2007,07,13,03,45,15.80
2007,07,13,03,46,15.90
2007,07,13,03,47,16.00
2007,07,13,03,48,16.10
2007,07,13,03,49,16.10
2007,07,13,03,50,16.10
2007,07,13,03,51,16.20
2007,07,13,03,52,16.20
2007,07,13,03,53,16.20
2007,07,13,03,54,16.30
2007,07,13,03,55,16.30
2007,07,13,03,56,16.30
2007,07,13,03,57,16.30
2007,07,13,03,58,16.40
2007,07,13,03,59,16.40
2007,07,13,04,00,16.40
2007,07,13,04,01,16.40
2007,07,13,04,02,16.40
2007,07,13,04,03,16.40
2007,07,13,04,04,16.30
2007,07,13,04,05,16.30
2007,07,13,04,06,16.30
2007,07,13,04,07,16.40
2007,07,13,04,08,16.40
2007,07,13,04,09,16.40
2007,07,13,04,10,16.40
2007,07,13,04,11,16.40
2007,07,13,04,12,16.50
2007,07,13,04,13,16.60
2007,07,13,04,14,16.50
2007,07,13,04,15,16.40
2007,07,13,04,16,16.30
2007,07,13,04,17,16.10
2007,07,13,04,18,16.10
2007,07,13,04,19,16.00
2007,07,13,04,20,15.80
2007,07,13,04,21,15.50
2007,07,13,04,22,15.30
2007,07,13,04,23,15.10
2007,07,13,04,24,15.10
2007,07,13,04,25,15.00
2007,07,13,04,26,14.90
2007,07,13,04,27,14.80
2007,07,13,04,28,14.80
2007,07,13,04,29,14.80
2007,07,13,04,30,14.80
2007,07,13,04,31,14.80
2007,07,13,04,32,14.70
2007,07,13,04,33,14.70
2007,07,13,04,34,14.70
2007,07,13,04,35,14.70
2007,07,13,04,36,14.70
2007,07,13,04,37,14.70
2007,07,13,04,38,14.80
2007,07,13,04,39,14.80
2007,07,13,04,40,14.80
2007,07,13,04,41,14.80
2007,07,13,04,42,14.80
2007,07,13,04,43,14.80
2007,07,13,04,44,14.80
2007,07,13,04,45,14.90
2007,07,13,04,46,15.00
2007,07,13,04,47,15.00
2007,07,13,04,48,15.00
2007,07,13,04,49,15.10
2007,07,13,04,50,15.10
2007,07,13,04,51,15.10
2007,07,13,04,52,15.20
2007,07,13,04,53,15.20
2007,07,13,04,54,15.20
2007,07,13,04,55,15.30
2007,07,13,04,56,15.30
2007,07,13,04,57,15.30
2007,07,13,04,58,15.30
2007,07,13,04,59,15.40
2007,07,13,05,00,15.40
2007,07,13,05,01,15.50
2007,07,13,05,02,15.50
2007,07,13,05,03,15.50
2007,07,13,05,04,15.50
2007,07,13,05,05,15.50
2007,07,13,05,06,15.60
2007,07,13,05,07,15.60
2007,07,13,05,08,15.70
2007,07,13,05,09,15.70
2007,07,13,05,10,15.70
2007,07,13,05,11,15.80
2007,07,13,05,12,15.80
2007,07,13,05,13,15.80
2007,07,13,05,14,15.80
2007,07,13,05,15,15.80
2007,07,13,05,16,15.80
2007,07,13,05,17,15.80
2007,07,13,05,18,15.80
2007,07,13,05,19,15.80
2007,07,13,05,20,15.80
2007,07,13,05,21,15.80
2007,07,13,05,22,15.80
2007,07,13,05,23,15.80
2007,07,13,05,24,15.80
2007,07,13,05,25,15.80
2007,07,13,05,26,15.80
2007,07,13,05,27,15.80
2007,07,13,05,28,15.80
2007,07,13,05,29,15.80
2007,07,13,05,30,15.80
2007,07,13,05,31,15.80
2007,07,13,05,32,15.80
2007,07,13,05,33,15.80
2007,07,13,05,34,15.80
2007,07,13,05,35,15.80
2007,07,13,05,36,15.80
2007,07,13,05,37,15.80
2007,07,13,05,38,15.80
2007,07,13,05,39,15.80
2007,07,13,05,40,15.70
2007,07,13,05,41,15.70
2007,07,13,05,42,15.70
2007,07,13,05,43,15.70
2007,07,13,05,44,15.70
2007,07,13,05,45,15.70
2007,07,13,05,46,15.70
2007,07,13,05,47,15.70
2007,07,13,05,48,15.70
2007,07,13,05,49,15.70
2007,07,13,05,50,15.70
2007,07,13,05,51,15.70
2007,07,13,05,52,15.70
2007,07,13,05,53,15.70
2007,07,13,05,54,15.70
2007,07,13,05,55,15.70
2007,07,13,05,56,15.70
2007,07,13,05,57,15.70
2007,07,13,05,58,15.70
2007,07,13,05,59,15.70
2007,07,13,06,00,15.70
2007,07,13,06,01,15.70
2007,07,13,06,02,15.70
2007,07,13,06,03,15.70
2007,07,13,06,04,15.70
2007,07,13,06,05,15.70
2007,07,13,06,06,15.70
2007,07,13,06,07,15.80
2007,07,13,06,08,15.80
2007,07,13,06,09,15.80
2007,07,13,06,10,15.80
2007,07,13,06,11,15.80
2007,07,13,06,12,15.80
2007,07,13,06,13,15.80
2007,07,13,06,14,15.80
2007,07,13,06,15,15.80
2007,07,13,06,16,15.70
2007,07,13,06,17,15.70
2007,07,13,06,18,15.70
2007,07,13,06,19,15.70
2007,07,13,06,20,15.70
2007,07,13,06,21,15.70
2007,07,13,06,22,15.70
2007,07,13,06,23,15.70
2007,07,13,06,24,15.60
2007,07,13,06,25,15.60
2007,07,13,06,26,15.60
2007,07,13,06,27,15.60
2007,07,13,06,28,15.60
2007,07,13,06,29,15.60
2007,07,13,06,30,15.60
2007,07,13,06,31,15.60
2007,07,13,06,32,15.60
2007,07,13,06,33,15.70
2007,07,13,06,34,15.70
2007,07,13,06,35,15.70
2007,07,13,06,36,15.70
2007,07,13,06,37,15.70
2007,07,13,06,38,15.70
2007,07,13,06,39,15.70
2007,07,13,06,40,15.70
2007,07,13,06,41,15.70
2007,07,13,06,42,15.70
2007,07,13,06,43,15.70
2007,07,13,06,44,15.70
2007,07,13,06,45,15.60
2007,07,13,06,46,15.50
2007,07,13,06,47,15.50
2007,07,13,06,48,15.50
2007,07,13,06,49,15.50
2007,07,13,06,50,15.50
2007,07,13,06,51,15.50
2007,07,13,06,52,15.50
2007,07,13,06,53,15.50
2007,07,13,06,54,15.50
2007,07,13,06,55,15.60
2007,07,13,06,56,15.60
2007,07,13,06,57,15.60
2007,07,13,06,58,15.70
2007,07,13,06,59,15.70
2007,07,13,07,00,15.80
2007,07,13,07,01,15.80
2007,07,13,07,02,15.80
2007,07,13,07,03,15.80
2007,07,13,07,04,15.80
2007,07,13,07,05,15.80
2007,07,13,07,06,15.80
2007,07,13,07,07,15.90
2007,07,13,07,08,15.90
2007,07,13,07,09,15.90
2007,07,13,07,10,15.90
2007,07,13,07,11,15.90
2007,07,13,07,12,16.10
2007,07,13,07,13,16.10
2007,07,13,07,14,16.10
2007,07,13,07,15,16.20
2007,07,13,07,16,16.20
2007,07,13,07,17,16.30
2007,07,13,07,18,16.40
2007,07,13,07,19,16.40
2007,07,13,07,20,16.40
2007,07,13,07,21,16.40
2007,07,13,07,22,16.40
2007,07,13,07,23,16.40
2007,07,13,07,24,16.40
2007,07,13,07,25,16.30
2007,07,13,07,26,16.30
2007,07,13,07,27,16.30
2007,07,13,07,28,16.30
2007,07,13,07,29,16.30
2007,07,13,07,30,16.30
2007,07,13,07,31,16.40
2007,07,13,07,32,16.40
2007,07,13,07,33,16.50
2007,07,13,07,34,16.60
2007,07,13,07,35,16.70
2007,07,13,07,36,16.70
2007,07,13,07,37,16.70
2007,07,13,07,38,16.70
2007,07,13,07,39,16.80
2007,07,13,07,40,16.90
2007,07,13,07,41,16.90
2007,07,13,07,42,17.00
2007,07,13,07,43,17.20
2007,07,13,07,44,17.30
2007,07,13,07,45,17.50
2007,07,13,07,46,17.60
2007,07,13,07,47,17.60
2007,07,13,07,48,17.60
2007,07,13,07,49,17.60
2007,07,13,07,50,17.60
2007,07,13,07,51,17.60
2007,07,13,07,52,17.50
2007,07,13,07,53,17.40
2007,07,13,07,54,17.30
2007,07,13,07,55,17.30
2007,07,13,07,56,17.20
2007,07,13,07,57,17.20
2007,07,13,07,58,17.20
2007,07,13,07,59,17.20
2007,07,13,08,00,17.30
2007,07,13,08,01,17.30
2007,07,13,08,02,17.30
2007,07,13,08,03,17.40
2007,07,13,08,04,17.50
2007,07,13,08,05,17.60
2007,07,13,08,06,17.80
2007,07,13,08,07,17.90
2007,07,13,08,08,17.90
2007,07,13,08,09,17.90
2007,07,13,08,10,17.90
2007,07,13,08,11,17.80
2007,07,13,08,12,17.40
2007,07,13,08,13,17.20
2007,07,13,08,14,17.20
2007,07,13,08,15,17.30
2007,07,13,08,16,17.30
2007,07,13,08,17,17.30
2007,07,13,08,18,17.40
2007,07,13,08,19,17.50
2007,07,13,08,20,17.60
2007,07,13,08,21,17.70
2007,07,13,08,22,17.60
2007,07,13,08,23,17.40
2007,07,13,08,24,17.00
2007,07,13,08,25,16.80
2007,07,13,08,26,16.70
2007,07,13,08,27,16.80
2007,07,13,08,28,16.90
2007,07,13,08,29,17.00
2007,07,13,08,30,17.20
2007,07,13,08,31,17.30
2007,07,13,08,32,17.50
2007,07,13,08,33,17.60
2007,07,13,08,34,17.80
2007,07,13,08,35,18.00
2007,07,13,08,36,18.10
2007,07,13,08,37,17.90
2007,07,13,08,38,17.90
2007,07,13,08,39,17.90
2007,07,13,08,40,17.90
2007,07,13,08,41,17.90
2007,07,13,08,42,17.60
2007,07,13,08,43,17.30
2007,07,13,08,44,17.10
2007,07,13,08,45,16.90
2007,07,13,08,46,16.70
2007,07,13,08,47,16.70
2007,07,13,08,48,16.70
2007,07,13,08,49,16.80
2007,07,13,08,50,16.90
2007,07,13,08,51,17.00
2007,07,13,08,52,17.10
2007,07,13,08,53,17.20
2007,07,13,08,54,17.30
2007,07,13,08,55,17.30
2007,07,13,08,56,17.40
2007,07,13,08,57,17.50
2007,07,13,08,58,17.60
2007,07,13,08,59,17.60
2007,07,13,09,00,17.80
2007,07,13,09,01,17.90
2007,07,13,09,02,18.00
2007,07,13,09,03,18.20
2007,07,13,09,04,18.30
2007,07,13,09,05,18.50
2007,07,13,09,06,18.60
2007,07,13,09,07,18.70
2007,07,13,09,08,18.90
2007,07,13,09,09,19.00
2007,07,13,09,10,19.20
2007,07,13,09,11,19.30
2007,07,13,09,12,19.30
2007,07,13,09,13,19.40
2007,07,13,09,14,19.40
2007,07,13,09,15,19.40
2007,07,13,09,16,19.10
2007,07,13,09,17,18.40
2007,07,13,09,18,17.90
2007,07,13,09,19,17.50
2007,07,13,09,20,17.40
2007,07,13,09,21,17.40
2007,07,13,09,22,17.30
2007,07,13,09,23,17.20
2007,07,13,09,24,17.20
2007,07,13,09,25,17.10
2007,07,13,09,26,17.10
2007,07,13,09,27,17.10
2007,07,13,09,28,17.20
2007,07,13,09,29,17.30
2007,07,13,09,30,17.40
2007,07,13,09,31,17.50
2007,07,13,09,32,17.60
2007,07,13,09,33,17.80
2007,07,13,09,34,18.00
2007,07,13,09,35,18.20
2007,07,13,09,36,18.40
2007,07,13,09,37,18.50
2007,07,13,09,38,18.60
2007,07,13,09,39,18.70
2007,07,13,09,40,18.80
2007,07,13,09,41,18.90
2007,07,13,09,42,19.00
2007,07,13,09,43,19.10
2007,07,13,09,44,19.10
2007,07,13,09,45,19.10
2007,07,13,09,46,19.00
2007,07,13,09,47,18.90
2007,07,13,09,48,18.80
2007,07,13,09,49,18.60
2007,07,13,09,50,18.30
2007,07,13,09,51,17.90
2007,07,13,09,52,17.50
2007,07,13,09,53,17.10
2007,07,13,09,54,17.00
2007,07,13,09,55,16.70
2007,07,13,09,56,16.40
2007,07,13,09,57,16.30
2007,07,13,09,58,16.20
2007,07,13,09,59,16.20
2007,07,13,10,00,16.20
2007,07,13,10,01,16.10
2007,07,13,10,02,16.10
2007,07,13,10,03,16.10
2007,07,13,10,04,16.10
2007,07,13,10,05,15.90
2007,07,13,10,06,15.90
2007,07,13,10,07,15.70
2007,07,13,10,08,15.70
2007,07,13,10,09,15.80
2007,07,13,10,10,15.80
2007,07,13,10,11,15.90
2007,07,13,10,12,16.10
2007,07,13,10,13,16.30
2007,07,13,10,14,16.50
2007,07,13,10,15,16.70
2007,07,13,10,16,16.70
2007,07,13,10,17,16.70
2007,07,13,10,18,16.70
2007,07,13,10,19,16.70
2007,07,13,10,20,16.80
2007,07,13,10,21,16.90
2007,07,13,10,22,17.00
2007,07,13,10,23,17.10
2007,07,13,10,24,17.30
2007,07,13,10,25,17.30
2007,07,13,10,26,17.30
2007,07,13,10,27,17.30
2007,07,13,10,28,17.30
2007,07,13,10,29,17.30
2007,07,13,10,30,17.30
2007,07,13,10,31,17.30
2007,07,13,10,32,17.20
2007,07,13,10,33,17.20
2007,07,13,10,34,17.20
2007,07,13,10,35,17.00
2007,07,13,10,36,16.90
2007,07,13,10,37,16.80
2007,07,13,10,38,16.70
2007,07,13,10,39,16.60
2007,07,13,10,40,16.50
2007,07,13,10,41,16.40
2007,07,13,10,42,16.40
2007,07,13,10,43,16.40
2007,07,13,10,44,16.40
2007,07,13,10,45,16.40
2007,07,13,10,46,16.40
2007,07,13,10,47,16.40
2007,07,13,10,48,16.40
2007,07,13,10,49,16.40
2007,07,13,10,50,16.40
2007,07,13,10,51,16.50
2007,07,13,10,52,16.60
2007,07,13,10,53,16.70
2007,07,13,10,54,16.80
2007,07,13,10,55,16.90
2007,07,13,10,56,17.00
2007,07,13,10,57,17.20
2007,07,13,10,58,17.30
2007,07,13,10,59,17.50
2007,07,13,11,00,17.60
2007,07,13,11,01,17.80
2007,07,13,11,02,17.90
2007,07,13,11,03,17.90
2007,07,13,11,04,17.90
2007,07,13,11,05,17.90
2007,07,13,11,06,17.90
2007,07,13,11,07,17.90
2007,07,13,11,08,18.10
2007,07,13,11,09,18.20
2007,07,13,11,10,18.40
2007,07,13,11,11,18.50
2007,07,13,11,12,18.50
2007,07,13,11,13,18.50
2007,07,13,11,14,18.50
2007,07,13,11,15,18.50
2007,07,13,11,16,18.50
2007,07,13,11,17,18.50
2007,07,13,11,18,18.40
2007,07,13,11,19,18.20
2007,07,13,11,20,18.00
2007,07,13,11,21,17.90
2007,07,13,11,22,17.70
2007,07,13,11,23,17.50
2007,07,13,11,24,17.40
2007,07,13,11,25,17.20
2007,07,13,11,26,17.10
2007,07,13,11,27,17.00
2007,07,13,11,28,17.00
2007,07,13,11,29,16.90
2007,07,13,11,30,16.90
2007,07,13,11,31,16.80
2007,07,13,11,32,16.90
2007,07,13,11,33,16.90
2007,07,13,11,34,17.00
2007,07,13,11,35,17.10
2007,07,13,11,36,17.20
2007,07,13,11,37,17.40
2007,07,13,11,38,17.50
2007,07,13,11,39,17.70
2007,07,13,11,40,17.80
2007,07,13,11,41,18.00
2007,07,13,11,42,18.20
2007,07,13,11,43,18.40
2007,07,13,11,44,18.80
2007,07,13,11,45,19.20
2007,07,13,11,46,19.50
2007,07,13,11,47,19.70
2007,07,13,11,48,19.90
2007,07,13,11,49,20.00
2007,07,13,11,50,20.20
2007,07,13,11,51,20.30
2007,07,13,11,52,20.30
2007,07,13,11,53,20.30
2007,07,13,11,54,20.40
2007,07,13,11,55,20.40
2007,07,13,11,56,20.40
2007,07,13,11,57,20.50
2007,07,13,11,58,20.60
2007,07,13,11,59,20.70
2007,07,13,12,00,20.70
2007,07,13,12,01,20.70
2007,07,13,12,02,20.80
2007,07,13,12,03,20.80
2007,07,13,12,04,21.00
2007,07,13,12,05,21.10
2007,07,13,12,06,21.30
2007,07,13,12,07,21.30
2007,07,13,12,08,21.20
2007,07,13,12,09,21.10
2007,07,13,12,10,21.10
2007,07,13,12,11,21.20
2007,07,13,12,12,21.20
2007,07,13,12,13,21.30
2007,07,13,12,14,21.30
2007,07,13,12,15,21.50
2007,07,13,12,16,21.50
2007,07,13,12,17,21.40
2007,07,13,12,18,21.40
2007,07,13,12,19,21.40
2007,07,13,12,20,21.30
2007,07,13,12,21,21.20
2007,07,13,12,22,21.20
2007,07,13,12,23,21.20
2007,07,13,12,24,21.30
2007,07,13,12,25,21.30
2007,07,13,12,26,21.20
2007,07,13,12,27,21.20
2007,07,13,12,28,21.10
2007,07,13,12,29,21.10
2007,07,13,12,30,21.20
2007,07,13,12,31,21.30
2007,07,13,12,32,21.30
2007,07,13,12,33,21.40
2007,07,13,12,34,21.60
2007,07,13,12,35,21.70
2007,07,13,12,36,21.80
2007,07,13,12,37,21.90
2007,07,13,12,38,21.80
2007,07,13,12,39,21.80
2007,07,13,12,40,21.80
2007,07,13,12,41,21.70
2007,07,13,12,42,21.80
2007,07,13,12,43,21.90
2007,07,13,12,44,21.90
2007,07,13,12,45,22.00
2007,07,13,12,46,22.00
2007,07,13,12,47,22.20
2007,07,13,12,48,22.20
2007,07,13,12,49,22.00
2007,07,13,12,50,21.80
2007,07,13,12,51,21.60
2007,07,13,12,52,21.60
2007,07,13,12,53,21.60
2007,07,13,12,54,21.70
2007,07,13,12,55,21.70
2007,07,13,12,56,21.80
2007,07,13,12,57,21.70
2007,07,13,12,58,21.70
2007,07,13,12,59,21.80
2007,07,13,13,00,22.00
2007,07,13,13,01,22.10
2007,07,13,13,02,22.20
2007,07,13,13,03,22.30
2007,07,13,13,04,22.30
2007,07,13,13,05,22.20
2007,07,13,13,06,22.10
2007,07,13,13,07,22.10
2007,07,13,13,08,22.20
2007,07,13,13,09,22.20
2007,07,13,13,10,22.10
2007,07,13,13,11,22.10
2007,07,13,13,12,22.20
2007,07,13,13,13,22.20
2007,07,13,13,14,22.20
2007,07,13,13,15,22.20
2007,07,13,13,16,22.30
2007,07,13,13,17,22.40
2007,07,13,13,18,22.50
2007,07,13,13,19,22.50
2007,07,13,13,20,22.70
2007,07,13,13,21,22.70
2007,07,13,13,22,22.70
2007,07,13,13,23,22.80
2007,07,13,13,24,22.90
2007,07,13,13,25,22.90
2007,07,13,13,26,22.80
2007,07,13,13,27,22.80
2007,07,13,13,28,22.80
2007,07,13,13,29,22.80
2007,07,13,13,30,22.90
2007,07,13,13,31,22.90
2007,07,13,13,32,22.90
2007,07,13,13,33,22.90
2007,07,13,13,34,22.90
2007,07,13,13,35,22.90
2007,07,13,13,36,22.90
2007,07,13,13,37,23.10
2007,07,13,13,38,23.20
2007,07,13,13,39,23.30
2007,07,13,13,40,23.40
2007,07,13,13,41,23.40
2007,07,13,13,42,23.40
2007,07,13,13,43,23.30
2007,07,13,13,44,23.30
2007,07,13,13,45,23.30
2007,07,13,13,46,23.30
2007,07,13,13,47,23.30
2007,07,13,13,48,23.40
2007,07,13,13,49,23.50
2007,07,13,13,50,23.60
2007,07,13,13,51,23.60
2007,07,13,13,52,23.70
2007,07,13,13,53,23.70
2007,07,13,13,54,23.70
2007,07,13,13,55,23.70
2007,07,13,13,56,23.70
2007,07,13,13,57,23.60
2007,07,13,13,58,23.60
2007,07,13,13,59,23.70
2007,07,13,14,00,23.70
2007,07,13,14,01,23.70
2007,07,13,14,02,23.60
2007,07,13,14,03,23.70
2007,07,13,14,04,23.70
2007,07,13,14,05,23.70
2007,07,13,14,06,23.80
2007,07,13,14,07,23.80
2007,07,13,14,08,23.90
2007,07,13,14,09,23.90
2007,07,13,14,10,24.10
2007,07,13,14,11,24.10
2007,07,13,14,12,24.10
2007,07,13,14,13,24.00
2007,07,13,14,14,23.90
2007,07,13,14,15,23.70
2007,07,13,14,16,23.70
2007,07,13,14,17,23.70
2007,07,13,14,18,23.70
2007,07,13,14,19,23.70
2007,07,13,14,20,23.70
2007,07,13,14,21,23.70
2007,07,13,14,22,23.60
2007,07,13,14,23,23.40
2007,07,13,14,24,23.40
2007,07,13,14,25,23.40
2007,07,13,14,26,23.50
2007,07,13,14,27,23.70
2007,07,13,14,28,23.80
2007,07,13,14,29,23.70
2007,07,13,14,30,23.70
2007,07,13,14,31,23.70
2007,07,13,14,32,23.90
2007,07,13,14,33,24.00
2007,07,13,14,34,23.90
2007,07,13,14,35,23.70
2007,07,13,14,36,23.70
2007,07,13,14,37,23.80
2007,07,13,14,38,23.80
2007,07,13,14,39,23.90
2007,07,13,14,40,23.80
2007,07,13,14,41,23.90
2007,07,13,14,42,24.10
2007,07,13,14,43,24.10
2007,07,13,14,44,24.10
2007,07,13,14,45,24.10
2007,07,13,14,46,24.10
2007,07,13,14,47,24.20
2007,07,13,14,48,24.30
2007,07,13,14,49,24.20
2007,07,13,14,50,24.10
2007,07,13,14,51,24.10
2007,07,13,14,52,24.10
2007,07,13,14,53,24.00
2007,07,13,14,54,23.80
2007,07,13,14,55,23.70
2007,07,13,14,56,23.60
2007,07,13,14,57,23.60
2007,07,13,14,58,23.70
2007,07,13,14,59,23.60
2007,07,13,15,00,23.70
2007,07,13,15,01,23.60
2007,07,13,15,02,23.50
2007,07,13,15,03,23.40
2007,07,13,15,04,23.50
2007,07,13,15,05,23.60
2007,07,13,15,06,23.50
2007,07,13,15,07,23.50
2007,07,13,15,08,23.40
2007,07,13,15,09,23.40
2007,07,13,15,10,23.60
2007,07,13,15,11,23.80
2007,07,13,15,12,24.00
2007,07,13,15,13,24.10
2007,07,13,15,14,24.20
2007,07,13,15,15,24.20
2007,07,13,15,16,24.30
2007,07,13,15,17,24.30
2007,07,13,15,18,24.40
2007,07,13,15,19,24.40
2007,07,13,15,20,24.40
2007,07,13,15,21,24.40
2007,07,13,15,22,24.40
2007,07,13,15,23,24.40
2007,07,13,15,24,24.40
2007,07,13,15,25,24.50
2007,07,13,15,26,24.50
2007,07,13,15,27,24.50
2007,07,13,15,28,24.50
2007,07,13,15,29,24.40
2007,07,13,15,30,24.50
2007,07,13,15,31,24.60
2007,07,13,15,32,24.60
2007,07,13,15,33,24.60
2007,07,13,15,34,24.50
2007,07,13,15,35,24.50
2007,07,13,15,36,24.50
2007,07,13,15,37,24.60
2007,07,13,15,38,24.70
2007,07,13,15,39,24.80
2007,07,13,15,40,24.90
2007,07,13,15,41,25.10
2007,07,13,15,42,25.30
2007,07,13,15,43,25.40
2007,07,13,15,44,25.40
2007,07,13,15,45,25.40
2007,07,13,15,46,25.30
2007,07,13,15,47,25.10
2007,07,13,15,48,24.90
2007,07,13,15,49,24.80
2007,07,13,15,50,24.70
2007,07,13,15,51,24.70
2007,07,13,15,52,24.60
2007,07,13,15,53,24.50
2007,07,13,15,54,24.50
2007,07,13,15,55,24.40
2007,07,13,15,56,24.50
2007,07,13,15,57,24.60
2007,07,13,15,58,24.60
2007,07,13,15,59,24.60
2007,07,13,16,00,24.60
2007,07,13,16,01,24.80
2007,07,13,16,02,24.80
2007,07,13,16,03,24.80
2007,07,13,16,04,24.80
2007,07,13,16,05,24.90
2007,07,13,16,06,24.90
2007,07,13,16,07,24.90
2007,07,13,16,08,25.00
2007,07,13,16,09,25.10
2007,07,13,16,10,25.10
2007,07,13,16,11,25.20
2007,07,13,16,12,25.20
2007,07,13,16,13,25.30
2007,07,13,16,14,25.20
2007,07,13,16,15,25.20
2007,07,13,16,16,25.10
2007,07,13,16,17,25.00
2007,07,13,16,18,24.90
2007,07,13,16,19,24.80
2007,07,13,16,20,24.80
2007,07,13,16,21,25.00
2007,07,13,16,22,25.10
2007,07,13,16,23,25.20
2007,07,13,16,24,25.30
2007,07,13,16,25,25.40
2007,07,13,16,26,25.40
2007,07,13,16,27,25.40
2007,07,13,16,28,25.40
2007,07,13,16,29,25.50
2007,07,13,16,30,25.50
2007,07,13,16,31,25.60
2007,07,13,16,32,25.80
2007,07,13,16,33,25.90
2007,07,13,16,34,25.90
2007,07,13,16,35,25.70
2007,07,13,16,36,25.60
2007,07,13,16,37,25.60
2007,07,13,16,38,25.40
2007,07,13,16,39,25.30
2007,07,13,16,40,25.20
2007,07,13,16,41,25.10
2007,07,13,16,42,25.10
2007,07,13,16,43,25.20
2007,07,13,16,44,25.10
2007,07,13,16,45,24.80
2007,07,13,16,46,24.50
2007,07,13,16,47,24.30
2007,07,13,16,48,23.90
2007,07,13,16,49,23.60
2007,07,13,16,50,23.50
2007,07,13,16,51,23.30
2007,07,13,16,52,23.30
2007,07,13,16,53,23.20
2007,07,13,16,54,23.20
2007,07,13,16,55,23.20
2007,07,13,16,56,23.30
2007,07,13,16,57,23.30
2007,07,13,16,58,23.20
2007,07,13,16,59,23.00
2007,07,13,17,00,22.60
2007,07,13,17,01,22.40
2007,07,13,17,02,22.40
2007,07,13,17,03,22.30
2007,07,13,17,04,22.20
2007,07,13,17,05,22.20
2007,07,13,17,06,22.10
2007,07,13,17,07,22.00
2007,07,13,17,08,21.70
2007,07,13,17,09,21.60
2007,07,13,17,10,21.50
2007,07,13,17,11,21.40
2007,07,13,17,12,21.30
2007,07,13,17,13,21.30
2007,07,13,17,14,21.20
2007,07,13,17,15,21.20
2007,07,13,17,16,21.10
2007,07,13,17,17,21.10
2007,07,13,17,18,21.20
2007,07,13,17,19,21.30